星链-35498(STARLINK-35498)

导读

STARLINK-35498是美国于2025年12月10日发射的Starlink星链卫星,星链是SpaceX打造的低轨卫星互联网星座项目,该卫星旨在为全球提供高速低延迟宽带网络服务,覆盖偏远、网络基础设施薄弱区域,充实星链星座组网规模,进一步提升星座服务覆盖能力与网络稳定性。

基本信息
目录编号:
67017
目录名称:
STARLINK-35498
国际标识:
2025-293Q
轨道中心:
EARTH
卫星名称:
星链-35498
卫星全名:
星链-35498(STARLINK-35498)
卫星状态:
在轨 (已飞行279 天)
发射日期:
2025-12-10 UTC
国别 :
美国 (US)
星等 :
--
该卫星已列入 空间交会检测服务 Space Conjunction Data Service (SCDS) ,当前飞行风险评估等级: 无高风险
轨道信息
数据来源 国际轨道数据
星历时间: 2026-09-14T12:18:03+0800
1天前
查看轨道信息
半长轴: 6950.175km
偏心率: 0.0003375
轨道倾角: 70.002°
近地点辐角 268.658°
升交点赤经 339.131°
平近点角 91.419°
近地点: 569.692km
远地点: 574.384km
周期: 96.107分钟
每日圈数: 14.98336
详细信息
固有亮度:
5
最大亮度:
2.5
卫星平台:
Starlink V1.0
覆盖范围:
全球
运营商:
太空探索技术公司
运营商所在国:
美国
制造商(研发单位):
太空探索技术公司
制造商所在国:
美国
使用方式:
暂无
卫星简介
Starlink 计划是 SpaceX 推出的全球卫星互联网项目,通过发射低轨道卫星,为全球尤其是偏远地区提供高速、低延迟的互联网服务。自 2019 年起,Starlink 已部署数千颗卫星,旨在缩小全球数字鸿沟,推动互联网普及。该项目还为军事、航空等行业提供通信支持,带来广泛经济效益。
2D轨道图
3D轨道图
轨道高度分析图
轨道倾角分析图
轨道综合分析图
查看轨道综合分析图
交会数据列表
事件ID 空间交会对象 最接近时刻(TCA) 交会距离 交会风险概率(CRP) 交会风险指数(CRI) 操作
CDM_260916-055804-916306-701721
2026-09-16T
05:58:46+0000
2.562 km
极远距离
1.64386E-6 低风险 0.39
CDM_260917-012206-363006-701721
KORSAT-3 (63630)
2026-09-17T
01:22:46+0000
2.799 km
极远距离
1.221971E-6 低风险 0.37
与全量物体交会距离演化趋势 订阅飞行安全评估服务
与全量物体交会风险概率演化趋势 订阅飞行安全评估服务